ACA1094 KBOS-CYHZ

Flight info

Callsign ACA1094
Flight time 1h 1m
Altitude 36000
Route LBSTA8 LBSTA DCT ALLEX FUNDY5
Aircraft B38M/M-SDE1FGHILORVWXY/HB1

Departure

Time 2026-05-04 23:33
Airport Boston Logan International Airport (KBOS)

Arrival

Time 2026-05-05 00:34
Airport Halifax / Stanfield International Airport (CYHZ)
Time Latitude Longitude Altitude Speed Heading
2026-05-04 22:58 42.36119 -71.02078 28 ft 0 kts 348°
2026-05-04 23:16 42.36107 -71.02074 28 ft 4 kts 353°
2026-05-04 23:17 42.36081 -71.02075 28 ft 4 kts 13°
2026-05-04 23:17 42.36058 -71.02089 28 ft 4 kts 46°
2026-05-04 23:17 42.36050 -71.02116 28 ft 4 kts 112°
2026-05-04 23:17 42.36054 -71.02126 28 ft 0 kts 121°
2026-05-04 23:21 42.36051 -71.02119 28 ft 2 kts 121°
2026-05-04 23:21 42.36041 -71.02096 28 ft 4 kts 122°
2026-05-04 23:21 42.36022 -71.02055 28 ft 6 kts 120°
2026-05-04 23:21 42.35998 -71.02000 28 ft 8 kts 121°
2026-05-04 23:22 42.35968 -71.01931 28 ft 9 kts 121°
2026-05-04 23:22 42.35933 -71.01849 28 ft 11 kts 115°
2026-05-04 23:22 42.35914 -71.01772 28 ft 7 kts 105°
2026-05-04 23:22 42.35898 -71.01698 28 ft 9 kts 117°
2026-05-04 23:23 42.35845 -71.01657 28 ft 9 kts 148°
2026-05-04 23:23 42.35827 -71.01626 28 ft 2 kts 107°
2026-05-04 23:23 42.35831 -71.01591 28 ft 6 kts 59°
2026-05-04 23:23 42.35879 -71.01554 28 ft 10 kts 21°
2026-05-04 23:24 42.35952 -71.01519 28 ft 12 kts 19°
2026-05-04 23:24 42.36037 -71.01478 28 ft 13 kts 19°
2026-05-04 23:24 42.36118 -71.01438 28 ft 13 kts 20°
2026-05-04 23:24 42.36209 -71.01394 28 ft 15 kts 19°
2026-05-04 23:25 42.36310 -71.01346 28 ft 16 kts 20°
2026-05-04 23:25 42.36412 -71.01297 28 ft 15 kts 20°
2026-05-04 23:25 42.36516 -71.01246 28 ft 17 kts 19°
2026-05-04 23:25 42.36628 -71.01192 28 ft 17 kts 19°
2026-05-04 23:26 42.36725 -71.01146 28 ft 13 kts 15°
2026-05-04 23:26 42.36811 -71.01177 28 ft 14 kts 314°
2026-05-04 23:26 42.36880 -71.01216 28 ft 10 kts 19°
2026-05-04 23:26 42.36942 -71.01158 28 ft 12 kts 40°
2026-05-04 23:27 42.37012 -71.01094 28 ft 13 kts 26°
2026-05-04 23:27 42.37100 -71.01037 28 ft 15 kts 26°
2026-05-04 23:27 42.37193 -71.00975 28 ft 15 kts 26°
2026-05-04 23:27 42.37292 -71.00912 28 ft 16 kts 22°
2026-05-04 23:28 42.37404 -71.00857 28 ft 18 kts 20°
2026-05-04 23:28 42.37514 -71.00804 28 ft 16 kts 20°
2026-05-04 23:28 42.37617 -71.00753 28 ft 16 kts 20°
2026-05-04 23:28 42.37715 -71.00706 28 ft 11 kts 19°
2026-05-04 23:29 42.37789 -71.00671 28 ft 12 kts 20°
2026-05-04 23:29 42.37826 -71.00640 28 ft 1 kts 51°
2026-05-04 23:29 42.37832 -71.00627 28 ft 3 kts 60°
2026-05-04 23:29 42.37836 -71.00599 28 ft 4 kts 90°
2026-05-04 23:30 42.37833 -71.00578 28 ft 2 kts 108°
2026-05-04 23:30 42.37832 -71.00574 28 ft 0 kts 108°
2026-05-04 23:31 42.37829 -71.00562 28 ft 2 kts 108°
2026-05-04 23:31 42.37821 -71.00534 28 ft 4 kts 111°
2026-05-04 23:32 42.37804 -71.00491 28 ft 6 kts 128°
2026-05-04 23:32 42.37777 -71.00482 28 ft 1 kts 199°
2026-05-04 23:32 42.37685 -71.00526 28 ft 47 kts 199°
2026-05-04 23:32 42.37125 -71.00796 28 ft 122 kts 199°
2026-05-04 23:33 42.36151 -71.01269 200 ft 163 kts 200°
2026-05-04 23:33 42.35090 -71.01766 801 ft 158 kts 202°
2026-05-04 23:33 42.34008 -71.02027 1327 ft 166 kts 181°
2026-05-04 23:33 42.32821 -71.01450 1459 ft 198 kts 146°
2026-05-04 23:34 42.31904 -70.99977 1580 ft 210 kts 123°
2026-05-04 23:34 42.31302 -70.98110 2201 ft 228 kts 110°
2026-05-04 23:34 42.31020 -70.95981 3035 ft 234 kts 91°
2026-05-04 23:34 42.31297 -70.93759 3732 ft 248 kts 74°
2026-05-04 23:35 42.31726 -70.91406 4375 ft 268 kts 75°
2026-05-04 23:35 42.32148 -70.88860 5031 ft 286 kts 76°
2026-05-04 23:35 42.32571 -70.86199 5927 ft 292 kts 75°
2026-05-04 23:35 42.32989 -70.83496 6893 ft 296 kts 76°
2026-05-04 23:36 42.33406 -70.80751 7861 ft 298 kts 75°
2026-05-04 23:36 42.33919 -70.78043 8789 ft 298 kts 62°
2026-05-04 23:36 42.35110 -70.75839 9717 ft 289 kts 34°
2026-05-04 23:36 42.36831 -70.74512 10436 ft 287 kts 15°
2026-05-04 23:37 42.38774 -70.73602 10843 ft 306 kts 14°
2026-05-04 23:37 42.40861 -70.72667 11260 ft 324 kts 13°
2026-05-04 23:37 42.43042 -70.71713 11793 ft 336 kts 13°
2026-05-04 23:37 42.45306 -70.70840 12467 ft 339 kts
2026-05-04 23:38 42.47632 -70.70162 13193 ft 345 kts
2026-05-04 23:38 42.50001 -70.69456 13889 ft 350 kts
2026-05-04 23:38 42.52385 -70.68735 14566 ft 354 kts
2026-05-04 23:38 42.54795 -70.68002 15257 ft 356 kts
2026-05-04 23:39 42.57223 -70.67261 15923 ft 359 kts
2026-05-04 23:39 42.59668 -70.66514 16598 ft 362 kts
2026-05-04 23:39 42.62136 -70.65760 17239 ft 365 kts
2026-05-04 23:39 42.64630 -70.64996 17876 ft 368 kts
2026-05-04 23:40 42.67142 -70.64234 18445 ft 371 kts
2026-05-04 23:40 42.69688 -70.63662 18988 ft 372 kts
2026-05-04 23:40 42.72258 -70.63087 19540 ft 375 kts
2026-05-04 23:40 42.74828 -70.62502 20072 ft 377 kts
2026-05-04 23:41 42.77418 -70.61768 20586 ft 385 kts 14°
2026-05-04 23:41 42.79820 -70.60077 21167 ft 396 kts 32°
2026-05-04 23:41 42.81766 -70.57447 21684 ft 407 kts 50°
2026-05-04 23:41 42.83371 -70.54169 22205 ft 411 kts 52°
2026-05-04 23:42 42.84929 -70.50939 22671 ft 415 kts 53°
2026-05-04 23:42 42.86502 -70.47640 23198 ft 417 kts 53°
2026-05-04 23:42 42.88082 -70.44306 23634 ft 420 kts 53°
2026-05-04 23:42 42.89691 -70.40906 24039 ft 422 kts 53°
2026-05-04 23:43 42.91283 -70.37532 24442 ft 425 kts 53°
2026-05-04 23:43 42.92886 -70.34132 24828 ft 427 kts 53°
2026-05-04 23:43 42.94470 -70.30768 25216 ft 429 kts 53°
2026-05-04 23:43 42.96086 -70.27333 25592 ft 432 kts 53°
2026-05-04 23:44 42.97712 -70.23873 25973 ft 434 kts 53°
2026-05-04 23:44 42.99350 -70.20383 26356 ft 436 kts 53°
2026-05-04 23:44 43.00987 -70.16891 26726 ft 438 kts 52°
2026-05-04 23:44 43.02635 -70.13370 27081 ft 440 kts 52°
2026-05-04 23:45 43.04287 -70.09837 27456 ft 442 kts 52°
2026-05-04 23:45 43.05944 -70.06291 27798 ft 444 kts 52°
2026-05-04 23:45 43.07608 -70.02723 28151 ft 446 kts 52°
2026-05-04 23:45 43.09289 -69.99118 28488 ft 448 kts 52°
2026-05-04 23:46 43.10966 -69.95512 28830 ft 450 kts 52°
2026-05-04 23:46 43.12652 -69.91885 29160 ft 452 kts 52°
2026-05-04 23:46 43.14341 -69.88247 29502 ft 454 kts 52°
2026-05-04 23:46 43.16040 -69.84582 29805 ft 456 kts 52°
2026-05-04 23:47 43.17741 -69.80909 30097 ft 458 kts 52°
2026-05-04 23:47 43.19444 -69.77226 30362 ft 459 kts 52°
2026-05-04 23:47 43.21157 -69.73517 30628 ft 461 kts 52°
2026-05-04 23:47 43.22874 -69.69795 30875 ft 463 kts 52°
2026-05-04 23:48 43.24596 -69.66058 31144 ft 464 kts 52°
2026-05-04 23:48 43.26324 -69.62303 31405 ft 465 kts 52°
2026-05-04 23:48 43.27469 -69.59813 31564 ft 467 kts 52°
2026-05-04 23:48 43.29199 -69.56044 31813 ft 468 kts 52°
2026-05-04 23:49 43.30929 -69.52272 32156 ft 467 kts 52°
2026-05-04 23:49 43.32656 -69.48502 32517 ft 466 kts 52°
2026-05-04 23:49 43.34376 -69.44741 32852 ft 465 kts 52°
2026-05-04 23:49 43.36093 -69.40983 33172 ft 464 kts 52°
2026-05-04 23:50 43.37810 -69.37220 33520 ft 463 kts 52°
2026-05-04 23:50 43.39516 -69.33475 33842 ft 462 kts 52°
2026-05-04 23:50 43.41223 -69.29723 34071 ft 463 kts 52°
2026-05-04 23:50 43.42927 -69.25973 34240 ft 464 kts 52°
2026-05-04 23:51 43.44639 -69.22202 34435 ft 465 kts 52°
2026-05-04 23:51 43.46354 -69.18419 34610 ft 466 kts 52°
2026-05-04 23:51 43.48075 -69.14617 34787 ft 468 kts 52°
2026-05-04 23:51 43.49794 -69.10815 34949 ft 469 kts 52°
2026-05-04 23:52 43.51522 -69.06988 35155 ft 470 kts 53°
2026-05-04 23:52 43.53247 -69.03164 35315 ft 471 kts 53°
2026-05-04 23:52 43.54981 -68.99314 35483 ft 473 kts 53°
2026-05-04 23:52 43.56707 -68.95476 35658 ft 474 kts 53°
2026-05-04 23:53 43.58451 -68.91594 35806 ft 475 kts 53°
2026-05-04 23:53 43.60191 -68.87715 35866 ft 476 kts 53°
2026-05-04 23:53 43.63670 -68.79944 35836 ft 475 kts 53°
2026-05-04 23:54 43.67137 -68.72179 35847 ft 476 kts 53°
2026-05-04 23:54 43.70609 -68.64382 35840 ft 476 kts 53°
2026-05-04 23:55 43.74073 -68.56584 35848 ft 476 kts 53°
2026-05-04 23:56 43.79269 -68.44844 35846 ft 477 kts 53°
2026-05-04 23:56 43.82726 -68.37005 35850 ft 478 kts 53°
2026-05-04 23:57 43.86185 -68.29145 35846 ft 478 kts 53°
2026-05-04 23:57 43.89646 -68.21253 35851 ft 479 kts 54°
2026-05-04 23:58 43.93100 -68.13361 35848 ft 479 kts 54°
2026-05-04 23:58 43.96554 -68.05445 35853 ft 480 kts 54°
2026-05-04 23:59 44.00009 -67.97505 35848 ft 481 kts 54°
2026-05-04 23:59 44.03465 -67.89540 35851 ft 482 kts 54°
2026-05-05 00:00 44.06921 -67.81554 35848 ft 482 kts 54°
2026-05-05 00:00 44.10376 -67.73547 35853 ft 483 kts 54°
2026-05-05 00:01 44.13831 -67.65520 35470 ft 482 kts 54°
2026-05-05 00:01 44.15540 -67.61536 35318 ft 482 kts 54°
2026-05-05 00:01 44.17265 -67.57519 34997 ft 481 kts 54°
2026-05-05 00:01 44.18984 -67.53504 34838 ft 480 kts 54°
2026-05-05 00:02 44.20689 -67.49516 34842 ft 481 kts 54°
2026-05-05 00:02 44.24122 -67.41471 34850 ft 484 kts 54°
2026-05-05 00:03 44.27560 -67.33394 34847 ft 484 kts 54°
2026-05-05 00:03 44.30999 -67.25296 34846 ft 485 kts 54°
2026-05-05 00:04 44.34441 -67.17171 34842 ft 487 kts 54°
2026-05-05 00:04 44.37861 -67.09072 34847 ft 488 kts 54°
2026-05-05 00:05 44.41244 -67.00826 34832 ft 493 kts 62°
2026-05-05 00:05 44.42294 -66.96252 34844 ft 497 kts 74°
2026-05-05 00:05 44.43106 -66.91529 34829 ft 500 kts 73°
2026-05-05 00:06 44.44758 -66.82088 34840 ft 501 kts 73°
2026-05-05 00:06 44.46382 -66.72613 34832 ft 501 kts 74°
2026-05-05 00:07 44.48001 -66.63110 34827 ft 502 kts 74°
2026-05-05 00:07 44.49616 -66.53582 34823 ft 503 kts 74°
2026-05-05 00:08 44.51227 -66.44023 34821 ft 504 kts 74°
2026-05-05 00:08 44.52821 -66.34512 34552 ft 496 kts 74°
2026-05-05 00:08 44.53612 -66.29784 33715 ft 502 kts 74°
2026-05-05 00:09 44.54408 -66.25003 32807 ft 506 kts 73°
2026-05-05 00:09 44.55202 -66.20223 32343 ft 500 kts 72°
2026-05-05 00:09 44.55977 -66.15538 32029 ft 491 kts 71°
2026-05-05 00:09 44.56745 -66.10888 31559 ft 486 kts 71°
2026-05-05 00:10 44.57504 -66.06283 30992 ft 484 kts 70°
2026-05-05 00:10 44.58259 -66.01683 30460 ft 482 kts 69°
2026-05-05 00:10 44.59005 -65.97123 29966 ft 479 kts 68°
2026-05-05 00:10 44.59745 -65.92587 29353 ft 477 kts 68°
2026-05-05 00:11 44.60481 -65.88061 28816 ft 473 kts 68°
2026-05-05 00:11 44.61210 -65.83574 28335 ft 468 kts 69°
2026-05-05 00:11 44.61927 -65.79149 27845 ft 465 kts 69°
2026-05-05 00:11 44.62638 -65.74743 27347 ft 462 kts 69°
2026-05-05 00:12 44.63347 -65.70349 26861 ft 459 kts 69°
2026-05-05 00:12 44.64046 -65.66001 26376 ft 457 kts 70°
2026-05-05 00:12 44.64745 -65.61644 25898 ft 455 kts 70°
2026-05-05 00:12 44.65435 -65.57327 25419 ft 454 kts 70°
2026-05-05 00:13 44.66123 -65.53013 24944 ft 452 kts 70°
2026-05-05 00:13 44.66858 -65.48729 24505 ft 446 kts 65°
2026-05-05 00:13 44.67763 -65.44619 24380 ft 435 kts 65°
2026-05-05 00:13 44.68617 -65.40641 24155 ft 428 kts 66°
2026-05-05 00:14 44.69475 -65.36582 23743 ft 428 kts 66°
2026-05-05 00:14 44.70312 -65.32576 23317 ft 427 kts 66°
2026-05-05 00:14 44.71148 -65.28560 22859 ft 426 kts 66°
2026-05-05 00:14 44.71972 -65.24588 22464 ft 423 kts 67°
2026-05-05 00:15 44.72793 -65.20625 22085 ft 420 kts 67°
2026-05-05 00:15 44.73607 -65.16687 21698 ft 418 kts 67°
2026-05-05 00:15 44.74411 -65.12787 21312 ft 415 kts 67°
2026-05-05 00:15 44.75213 -65.08890 20924 ft 413 kts 68°
2026-05-05 00:16 44.76001 -65.05057 20542 ft 411 kts 68°
2026-05-05 00:16 44.76802 -65.01150 20145 ft 410 kts 68°
2026-05-05 00:16 44.77591 -64.97299 19751 ft 408 kts 68°
2026-05-05 00:16 44.78375 -64.93461 19363 ft 407 kts 69°
2026-05-05 00:17 44.79144 -64.89688 18974 ft 407 kts 69°
2026-05-05 00:17 44.79923 -64.85862 18578 ft 406 kts 69°
2026-05-05 00:17 44.80700 -64.82038 18182 ft 406 kts 69°
2026-05-05 00:17 44.81472 -64.78230 17732 ft 406 kts 70°
2026-05-05 00:18 44.82246 -64.74406 17317 ft 404 kts 70°
2026-05-05 00:18 44.83013 -64.70608 16921 ft 403 kts 70°
2026-05-05 00:18 44.83778 -64.66814 16527 ft 401 kts 70°
2026-05-05 00:18 44.84537 -64.63044 16237 ft 396 kts 70°
2026-05-05 00:19 44.85281 -64.59337 15923 ft 392 kts 70°
2026-05-05 00:19 44.86019 -64.55657 15549 ft 391 kts 70°
2026-05-05 00:19 44.86756 -64.51974 15166 ft 389 kts 71°
2026-05-05 00:19 44.87490 -64.48298 14772 ft 388 kts 71°
2026-05-05 00:20 44.88221 -64.44632 14381 ft 388 kts 71°
2026-05-05 00:20 44.88949 -64.40975 13987 ft 387 kts 71°
2026-05-05 00:20 44.89674 -64.37326 13596 ft 386 kts 71°
2026-05-05 00:20 44.90396 -64.33684 13152 ft 386 kts 71°
2026-05-05 00:21 44.91117 -64.30040 12745 ft 385 kts 71°
2026-05-05 00:21 44.91832 -64.26417 12350 ft 383 kts 72°
2026-05-05 00:21 44.92545 -64.22804 11961 ft 381 kts 72°
2026-05-05 00:21 44.93250 -64.19220 11605 ft 378 kts 72°
2026-05-05 00:22 44.93945 -64.15680 11193 ft 370 kts 72°
2026-05-05 00:22 44.94622 -64.12226 10809 ft 360 kts 72°
2026-05-05 00:22 44.95126 -64.09655 10523 ft 353 kts 72°
2026-05-05 00:23 44.95767 -64.06376 10348 ft 340 kts 72°
2026-05-05 00:23 44.96391 -64.03178 10183 ft 337 kts 72°
2026-05-05 00:23 44.97012 -63.99991 9993 ft 336 kts 72°
2026-05-05 00:23 44.97631 -63.96808 9627 ft 338 kts 72°
2026-05-05 00:24 44.98255 -63.93597 9209 ft 339 kts 72°
2026-05-05 00:24 44.98875 -63.90398 8832 ft 337 kts 72°
2026-05-05 00:24 44.99488 -63.87234 8474 ft 329 kts 72°
2026-05-05 00:24 45.00088 -63.84127 8129 ft 328 kts 72°
2026-05-05 00:25 45.00686 -63.81025 7778 ft 327 kts 72°
2026-05-05 00:25 45.01282 -63.77930 7417 ft 323 kts 72°
2026-05-05 00:25 45.01867 -63.74891 7079 ft 317 kts 72°
2026-05-05 00:25 45.02431 -63.71948 6789 ft 303 kts 72°
2026-05-05 00:26 45.02962 -63.69174 6461 ft 290 kts 72°
2026-05-05 00:26 45.03479 -63.66482 6147 ft 278 kts 72°
2026-05-05 00:26 45.03972 -63.63900 5815 ft 266 kts 72°
2026-05-05 00:26 45.04443 -63.61432 5513 ft 255 kts 71°
2026-05-05 00:27 45.04892 -63.59077 5257 ft 241 kts 71°
2026-05-05 00:27 45.05324 -63.56810 5099 ft 238 kts 71°
2026-05-05 00:27 45.05753 -63.54555 5005 ft 237 kts 71°
2026-05-05 00:27 45.06181 -63.52306 4905 ft 237 kts 71°
2026-05-05 00:28 45.06607 -63.50061 4782 ft 236 kts 71°
2026-05-05 00:28 45.06942 -63.47789 4586 ft 237 kts 90°
2026-05-05 00:28 45.06556 -63.45591 4322 ft 228 kts 124°
2026-05-05 00:28 45.05724 -63.43696 4187 ft 226 kts 131°
2026-05-05 00:29 45.04847 -63.41851 3911 ft 226 kts 132°
2026-05-05 00:29 45.03942 -63.40078 3595 ft 216 kts 143°
2026-05-05 00:29 45.02791 -63.39079 3381 ft 176 kts 181°
2026-05-05 00:29 45.01695 -63.39152 3238 ft 151 kts 208°
2026-05-05 00:30 45.00670 -63.39536 3141 ft 154 kts 206°
2026-05-05 00:30 44.99680 -63.40014 2994 ft 146 kts 217°
2026-05-05 00:30 44.98823 -63.40665 2852 ft 133 kts 223°
2026-05-05 00:30 44.98063 -63.41358 2677 ft 129 kts 225°
2026-05-05 00:31 44.97330 -63.42067 2517 ft 128 kts 226°
2026-05-05 00:31 44.96598 -63.42790 2360 ft 128 kts 226°
2026-05-05 00:31 44.95873 -63.43510 2182 ft 127 kts 225°
2026-05-05 00:31 44.95142 -63.44235 2031 ft 129 kts 224°
2026-05-05 00:32 44.94408 -63.44962 1853 ft 128 kts 223°
2026-05-05 00:32 44.93680 -63.45679 1671 ft 127 kts 224°
2026-05-05 00:32 44.92976 -63.46417 1445 ft 126 kts 223°
2026-05-05 00:32 44.92226 -63.47106 1269 ft 131 kts 218°
2026-05-05 00:33 44.91481 -63.47868 1090 ft 135 kts 221°
2026-05-05 00:33 44.90704 -63.48639 983 ft 138 kts 217°
2026-05-05 00:33 44.89912 -63.49416 729 ft 141 kts 218°
2026-05-05 00:33 44.89077 -63.50248 598 ft 155 kts 217°
2026-05-05 00:34 44.88475 -63.50837 476 ft 156 kts 216°
2026-05-05 00:34 44.87658 -63.51648 453 ft 126 kts 215°
2026-05-05 00:34 44.87224 -63.52077 451 ft 41 kts 215°
2026-05-05 00:34 44.86999 -63.52306 452 ft 36 kts 212°
2026-05-05 00:35 44.86929 -63.52501 453 ft 20 kts 314°
2026-05-05 00:35 44.87012 -63.52538 454 ft 12 kts 348°
2026-05-05 00:35 44.87086 -63.52523 454 ft 10 kts 54°
2026-05-05 00:35 44.87136 -63.52487 454 ft 8 kts 24°
2026-05-05 00:36 44.87190 -63.52437 454 ft 10 kts 36°
2026-05-05 00:36 44.87252 -63.52375 454 ft 12 kts 36°
2026-05-05 00:36 44.87323 -63.52305 454 ft 13 kts 35°
2026-05-05 00:36 44.87404 -63.52226 454 ft 15 kts 34°
2026-05-05 00:37 44.87495 -63.52137 454 ft 17 kts 34°
2026-05-05 00:37 44.87595 -63.52040 454 ft 18 kts 36°
2026-05-05 00:37 44.87701 -63.51933 454 ft 19 kts 36°
2026-05-05 00:37 44.87810 -63.51825 454 ft 19 kts 35°
2026-05-05 00:38 44.87922 -63.51716 454 ft 20 kts 34°
2026-05-05 00:38 44.88041 -63.51597 454 ft 22 kts 35°
2026-05-05 00:38 44.88141 -63.51498 454 ft 14 kts 34°
2026-05-05 00:38 44.88228 -63.51415 454 ft 15 kts 36°
2026-05-05 00:39 44.88311 -63.51328 454 ft 15 kts 29°
2026-05-05 00:39 44.88395 -63.51238 454 ft 16 kts 36°
2026-05-05 00:39 44.88501 -63.51213 454 ft 16 kts 350°
2026-05-05 00:39 44.88620 -63.51243 454 ft 18 kts 349°
2026-05-05 00:40 44.88740 -63.51272 454 ft 15 kts 350°
2026-05-05 00:40 44.88759 -63.51291 454 ft 1 kts 275°
2026-05-05 00:40 44.88757 -63.51307 454 ft 2 kts 256°
2026-05-05 00:40 44.88752 -63.51337 454 ft 4 kts 264°
2026-05-05 00:41 44.88754 -63.51354 454 ft 1 kts 290°
2026-05-05 00:41 44.88758 -63.51369 454 ft 0 kts 293°
2026-05-05 00:41 44.88761 -63.51381 454 ft 1 kts 294°
2026-05-05 00:41 44.88764 -63.51388 454 ft 1 kts 296°
2026-05-05 00:42 44.88767 -63.51397 454 ft 1 kts 296°
2026-05-05 00:42 44.88769 -63.51402 454 ft 0 kts 296°